ECMWFNIL_850_thetae_021.txt.gz
Theta_e
308 308 308 308 308 308 307 307 307 306 306 306 306 306 305 305 304 303 302 301 299 297 296 295 295 295 295 295 295 295 295 295 295 295 295 295 295 295 295 295 295 295
308 308 308 307 308 308 308 308 307 307 307 306 306 305 305 304 303 303 302 301 300 298 297 295 295 294 295 294 295 295 295 295 295 295 295 295 295 295 295 295 295 295
310 309 309 309 309 309 308 308 307 307 307 306 306 305 305 304 303 302 302 301 300 299 297 296 295 294 294 294 294 294 294 295 295 295 295 295 295 295 295 295 295 295
311 311 310 310 309 308 308 307 307 307 307 306 306 305 304 303 303 302 301 300 300 299 297 296 295 294 294 294 294 294 294 294 294 294 295 294 294 294 294 294 294 294
311 311 311 310 309 308 307 307 308 307 307 307 306 305 304 303 302 301 301 300 299 299 298 296 295 294 293 293 293 293 293 293 294 294 294 294 294 294 294 294 294 294
312 311 311 310 309 308 308 308 308 307 307 306 306 305 304 303 302 302 300 299 299 298 298 296 295 294 293 293 293 293 293 293 293 294 294 294 294 294 294 294 294 294
312 312 311 310 308 307 308 308 307 307 307 306 305 305 304 303 303 302 300 299 298 298 298 297 295 294 293 293 292 292 292 293 293 293 294 294 294 294 294 294 294 294
310 311 310 309 308 307 307 307 307 307 307 306 305 305 305 304 303 302 301 299 298 297 297 297 296 294 293 293 292 292 292 292 292 293 293 293 293 293 294 294 294 294
309 309 309 308 308 307 307 307 307 307 307 306 306 305 304 304 303 302 301 299 298 297 297 296 296 295 294 293 292 292 292 292 292 293 293 293 293 293 293 293 293 293
308 308 308 308 308 308 307 307 307 307 307 306 306 305 304 304 303 302 300 299 298 297 297 296 296 295 294 293 293 292 292 292 292 292 292 293 293 293 293 293 293 293
308 308 308 307 307 307 308 307 307 306 306 306 305 305 305 304 303 302 300 299 298 298 297 296 296 295 294 293 293 292 292 291 292 292 292 292 292 292 292 292 292 292
308 308 308 307 307 307 307 306 306 306 305 305 305 305 304 303 303 302 301 300 299 298 297 296 296 295 294 294 293 292 292 291 291 291 291 291 292 292 292 292 292 292
307 308 308 307 307 307 306 305 305 305 305 305 304 304 303 302 302 301 301 301 300 299 298 297 296 295 294 293 293 292 292 291 291 291 291 291 291 291 291 291 291 291
308 308 308 307 306 305 305 304 304 304 305 305 304 302 302 301 301 300 300 299 299 298 298 297 296 295 294 293 293 292 292 291 291 291 290 290 290 290 290 290 291 290
308 307 307 306 304 304 304 303 303 304 305 304 304 303 301 300 299 298 298 298 297 296 296 295 295 294 294 293 293 292 291 291 290 290 290 290 290 290 290 290 290 290
306 305 305 304 303 303 304 303 302 303 304 304 304 302 300 299 298 297 297 296 296 295 295 294 294 294 294 293 293 292 292 291 290 290 290 290 290 289 290 290 290 290
305 304 303 303 303 302 302 302 302 302 302 303 302 301 300 298 297 297 296 295 295 295 295 294 294 294 293 293 292 292 291 290 290 290 289 289 289 289 289 289 289 289
304 304 303 302 302 302 301 301 301 300 301 301 301 301 300 298 297 296 296 295 295 294 294 294 294 294 293 293 292 292 291 290 289 289 289 289 289 289 289 289 289 289
302 302 302 302 302 301 301 300 299 300 300 300 300 300 299 298 297 296 295 295 294 294 294 293 293 293 293 292 292 291 290 290 289 288 289 288 288 288 288 288 288 288
300 301 301 301 301 300 299 298 298 299 299 299 299 298 298 297 297 296 295 294 294 293 293 293 292 292 292 292 291 291 290 289 288 288 288 288 287 288 288 288 288 287
298 298 298 298 298 298 298 298 297 297 298 298 297 297 297 297 296 295 294 294 293 292 292 292 292 292 291 291 291 290 289 289 288 287 287 287 287 287 287 287 287 286
297 296 296 296 296 296 296 296 296 296 296 296 296 295 295 294 294 294 293 293 292 292 291 291 291 291 290 290 290 289 289 288 287 287 286 286 286 286 286 286 286 286
298 297 296 295 294 294 295 295 295 295 295 294 294 294 294 293 293 293 292 292 292 291 291 291 291 290 290 290 289 289 288 288 287 286 286 286 286 286 286 286 285 285
298 298 297 296 294 293 293 293 293 293 293 293 293 293 293 293 292 292 291 291 291 291 291 291 291 290 290 290 289 288 288 287 286 286 286 285 286 286 285 285 285 285
298 298 298 297 296 295 293 292 292 292 292 292 292 292 292 292 291 291 291 291 290 290 290 290 290 290 289 289 288 288 287 287 286 285 285 285 285 285 285 285 285 285
298 298 298 297 297 296 294 293 292 291 291 291 291 290 290 290 290 290 290 290 290 289 289 289 289 289 289 288 287 287 286 286 285 285 285 285 285 285 285 285 285 285

ECMWFNIL_850_thetae_024.txt.gz
Theta_e
309 309 309 308 308 308 308 308 308 307 308 308 308 308 307 307 306 306 305 305 304 303 302 301 301 300 298 296 295 294 294 294 294 294 294 295 295 296 296 296 295 295
309 308 308 308 308 308 308 308 308 307 307 307 307 307 307 306 306 305 305 305 304 304 303 302 301 300 299 297 296 294 294 294 294 294 294 294 295 295 295 295 295 295
308 308 308 308 308 308 308 308 307 307 307 307 307 307 306 306 305 305 305 304 304 304 303 302 302 301 299 298 296 295 294 294 294 294 294 294 294 294 295 295 295 295
309 308 308 308 308 308 307 307 307 307 307 307 307 307 306 306 305 305 304 304 303 303 303 303 302 301 300 298 297 295 294 294 293 293 293 293 294 294 294 295 295 295
309 309 309 308 308 307 306 306 306 307 307 307 307 307 306 306 305 305 304 304 303 303 302 302 302 301 300 299 298 296 295 294 293 293 293 293 293 294 294 294 294 294
309 310 309 309 308 307 307 306 306 306 305 306 306 306 306 306 305 305 304 304 303 303 302 302 302 301 301 299 298 297 296 294 293 293 293 293 293 293 293 294 294 294
308 309 309 309 308 308 307 307 307 306 306 305 305 305 305 305 305 305 305 304 303 303 302 302 302 302 301 300 299 298 296 295 294 293 293 293 293 293 293 293 294 294
307 307 307 307 307 307 307 307 307 307 306 306 305 305 305 305 305 305 305 304 303 303 302 302 302 302 301 301 300 299 297 296 295 293 293 293 292 293 293 293 293 293
306 305 305 306 306 306 306 306 306 306 306 305 305 305 305 304 305 305 304 304 303 302 302 301 302 302 302 301 300 299 298 297 296 294 293 293 293 293 293 293 293 293
304 304 304 304 305 305 305 305 305 305 305 305 305 304 304 304 304 304 304 304 303 303 302 302 302 302 302 301 301 300 299 298 297 295 294 293 293 293 292 292 293 293
303 303 303 303 303 304 304 304 304 303 303 304 304 304 304 304 303 303 303 304 304 303 303 303 302 301 301 301 301 300 299 298 297 296 295 293 293 292 292 292 292 293
304 304 303 303 302 303 303 303 303 302 302 302 303 303 303 303 303 303 303 303 303 303 303 302 302 301 300 301 300 300 299 298 297 296 295 294 293 292 292 292 292 292
305 305 304 303 302 302 301 301 301 302 301 301 301 302 303 303 302 302 302 302 302 302 302 301 301 300 299 299 299 299 299 298 297 296 295 294 293 292 292 292 292 292
305 305 304 303 303 302 301 300 300 301 301 301 301 301 302 302 301 300 300 301 300 300 300 300 299 299 299 298 298 298 298 298 298 297 296 295 293 292 292 292 291 291
303 304 304 304 303 302 300 300 300 300 300 300 300 300 301 301 300 299 298 299 299 299 298 298 298 298 298 298 297 297 297 297 297 297 296 295 294 293 292 291 291 291
300 300 301 302 301 299 298 298 298 298 299 299 299 299 299 299 298 297 297 298 298 297 297 297 297 298 298 298 297 297 297 297 296 296 295 295 294 293 292 291 291 291
299 298 299 298 298 297 296 296 296 296 297 297 298 297 297 297 297 296 297 297 297 297 297 297 297 297 297 297 296 296 296 296 296 296 295 294 293 293 292 291 291 290
298 298 298 298 297 295 294 293 293 294 295 295 296 296 296 296 296 296 296 296 296 296 296 296 296 296 296 296 296 295 295 295 295 295 295 294 293 293 292 291 290 290
297 298 298 298 298 296 295 293 292 292 293 293 294 294 295 295 295 295 295 295 295 296 296 296 296 295 295 295 295 294 294 294 294 294 294 294 293 293 292 291 290 290
295 296 297 298 298 298 297 295 293 292 292 292 292 293 293 293 294 294 294 294 294 295 295 295 295 295 294 294 293 293 293 293 293 293 293 293 292 292 291 291 290 290
292 294 295 296 297 298 298 297 296 293 292 291 291 291 292 292 292 293 293 293 293 293 294 294 294 294 293 293 293 292 292 292 292 292 292 292 291 291 290 290 290 289
291 291 293 294 296 297 297 297 297 295 293 292 291 291 291 291 291 292 292 292 292 293 293 293 293 293 292 292 292 292 291 291 291 291 291 291 291 290 290 289 289 288
291 291 291 292 293 295 296 297 297 297 295 293 291 290 290 290 290 291 291 291 292 292 292 292 292 292 292 291 291 291 291 291 291 290 290 290 290 289 289 288 288 288
290 290 290 291 291 292 294 295 296 297 296 295 293 291 290 290 290 290 290 290 290 291 291 291 291 291 291 291 291 290 290 290 290 290 289 289 288 288 287 287 287 287
288 289 290 290 290 291 292 293 294 295 296 296 295 293 291 290 289 289 289 289 289 290 290 290 290 290 290 290 290 290 289 289 289 289 289 288 288 287 287 286 286 287
287 287 288 289 290 290 290 291 292 293 294 296 296 295 292 290 289 289 289 289 289 289 289 289 289 289 289 289 289 288 288 288 288 288 288 288 287 287 286 286 286 286

ECMWFNIL_850_thetae_027.txt.gz
Theta_e
305 305 305 305 305 305 305 305 305 305 305 306 306 307 307 307 307 307 307 307 306 305 305 304 303 303 302 300 299 298 298 297 296 296 295 295 295 295 295 295 295 296
305 305 304 304 304 304 304 305 305 305 305 305 305 305 306 306 306 306 306 306 306 306 306 305 304 303 303 302 301 299 298 298 297 296 295 295 295 295 295 295 295 295
305 304 304 304 304 304 304 304 304 304 305 305 305 305 305 305 305 305 305 305 305 305 305 305 305 304 303 302 301 300 299 299 298 297 296 295 295 295 295 295 295 295
304 304 304 304 304 303 303 303 304 304 304 304 305 305 305 305 305 304 304 304 304 304 304 304 304 304 303 303 302 301 300 299 298 297 297 296 295 295 295 294 294 294
303 303 303 303 303 303 303 303 304 304 304 304 304 304 304 304 305 305 304 304 304 303 303 303 303 303 303 302 302 301 300 299 298 298 297 296 295 295 294 294 294 294
302 303 303 303 303 303 303 303 304 304 304 304 303 303 303 303 304 304 304 304 304 304 303 303 303 303 302 302 301 301 300 300 299 298 297 297 296 295 294 294 294 294
302 303 303 303 302 302 302 303 303 303 303 303 303 302 302 302 303 303 303 303 303 303 303 303 303 303 302 302 301 301 301 300 299 299 298 298 297 295 294 294 294 294
303 303 303 303 302 301 301 302 302 302 302 302 302 301 301 302 301 301 302 302 302 302 302 302 303 302 302 302 302 301 301 300 300 300 299 298 297 296 295 294 294 293
303 304 304 303 303 302 302 302 301 301 301 300 300 300 300 300 300 300 300 300 300 301 301 301 301 301 302 302 302 301 301 301 300 300 300 299 298 297 296 294 293 293
303 303 304 304 304 304 303 303 302 302 301 300 300 300 300 299 299 299 299 299 299 299 299 300 300 300 301 301 301 301 301 301 300 300 299 299 298 298 297 296 294 294
302 302 303 303 303 303 304 304 304 303 301 300 299 299 299 299 299 298 298 298 298 299 299 299 299 299 300 300 300 300 300 300 300 300 299 299 298 298 297 297 296 295
301 301 301 301 302 302 302 303 303 303 303 301 299 299 298 298 297 298 298 298 298 298 298 298 298 298 299 299 299 299 300 300 300 299 299 298 298 298 298 297 296 295
297 299 299 300 301 301 301 301 301 301 301 301 300 299 298 297 296 297 297 298 298 297 297 297 297 297 298 298 298 298 298 299 299 299 299 298 298 297 297 297 297 296
294 295 296 298 299 299 300 300 300 300 300 300 300 299 297 296 296 296 296 297 297 296 296 296 296 297 297 297 297 297 297 297 298 298 298 298 298 297 297 297 296 296
292 293 293 294 296 298 299 299 299 300 299 299 298 298 298 296 295 295 295 295 295 295 295 295 295 296 296 296 296 296 296 296 296 297 297 297 297 297 297 296 296 296
292 292 292 293 293 295 296 297 298 299 299 298 298 297 297 296 295 295 294 294 294 294 294 294 295 295 296 296 296 296 295 295 296 296 296 297 297 296 296 296 296 295
290 291 292 292 292 293 293 295 296 297 297 298 298 297 296 295 295 294 293 293 292 293 293 293 294 294 294 295 295 295 294 294 295 295 295 295 296 296 296 296 296 295
289 289 290 290 291 292 292 292 293 294 296 297 297 297 297 296 295 294 293 292 292 292 292 292 293 293 293 294 294 294 294 294 293 294 294 294 295 295 295 295 295 295
288 288 288 289 289 290 291 291 291 292 293 294 295 296 297 297 296 294 293 292 291 291 291 291 292 292 292 292 292 293 293 293 293 293 293 293 294 294 294 295 295 294
287 287 287 287 287 288 288 289 290 291 291 292 293 294 295 296 297 296 294 293 291 291 291 291 291 291 291 291 291 291 292 291 292 292 292 292 293 293 293 294 294 294
286 286 286 286 286 287 287 287 288 289 290 291 291 292 293 294 295 296 296 295 292 290 290 290 290 290 290 290 290 290 290 290 291 291 291 292 292 292 292 292 293 293
285 285 285 285 285 286 286 286 286 287 288 289 290 291 291 292 293 294 295 296 295 293 290 290 290 289 289 290 290 290 289 289 289 290 290 291 291 291 291 291 292 292
285 285 285 285 285 285 285 285 285 285 286 286 287 289 290 291 291 292 293 295 296 295 293 291 290 289 289 289 289 289 289 289 288 289 289 290 290 290 290 290 290 290
285 285 285 285 285 285 285 285 285 285 285 285 286 286 287 289 290 291 291 292 294 295 295 293 291 289 288 288 288 288 288 288 288 288 288 289 289 289 289 289 289 289
285 285 285 285 285 285 285 285 285 285 285 285 285 285 286 287 288 289 291 291 292 293 294 295 294 291 288 287 287 287 287 287 287 287 288 288 288 288 288 288 288 288
284 284 284 284 284 284 284 285 285 285 285 285 285 285 285 285 286 287 289 290 291 292 293 294 295 293 291 288 287 287 287 287 287 287 287 287 287 287 288 288 288 287

ECMWFNIL_850_thetae_030.txt.gz
Theta_e
304 302 302 301 302 302 302 302 303 303 303 303 303 303 303 303 304 304 304 304 304 303 303 302 301 300 299 299 299 298 298 299 299 298 297 297 296 296 296 296 296 296
304 304 302 301 301 301 301 302 302 302 303 303 303 303 303 303 303 303 303 303 303 303 303 303 302 301 300 299 298 298 298 298 298 298 297 297 296 296 296 296 296 295
304 304 303 302 301 300 300 300 301 301 302 302 302 302 302 302 302 302 302 302 302 302 302 302 302 302 301 300 299 298 298 298 298 298 298 297 297 296 296 295 295 295
303 303 303 302 302 301 300 299 299 300 301 301 301 301 301 301 301 302 302 302 302 302 302 302 302 302 302 302 301 300 299 299 298 298 298 298 297 297 296 295 295 295
303 303 302 302 302 301 301 300 299 299 300 300 300 300 300 300 301 301 301 302 302 302 302 301 301 301 301 302 301 301 301 300 300 299 298 298 298 297 296 296 295 295
302 302 302 302 302 301 301 301 300 299 300 300 301 300 300 300 300 300 300 301 301 301 301 301 301 301 301 301 301 301 301 301 301 301 300 299 299 298 297 296 295 295
302 302 302 302 302 301 301 301 301 300 300 301 301 301 301 300 300 300 300 300 300 300 300 300 300 300 300 300 300 301 301 301 301 301 301 301 300 299 298 297 296 295
299 301 301 302 302 302 301 302 301 301 300 300 301 301 300 300 300 299 299 299 299 299 299 300 299 299 299 299 300 300 300 301 301 301 301 301 301 300 300 299 298 296
298 298 299 300 301 301 301 301 301 301 300 300 300 300 300 300 299 298 298 298 298 298 298 299 299 298 299 299 299 299 299 300 300 300 301 301 301 301 301 300 299 298
297 297 297 298 299 300 300 300 301 301 300 300 299 299 298 299 299 298 298 297 297 297 297 297 298 298 298 298 298 298 298 298 299 299 300 300 300 301 301 301 300 300
295 296 297 296 297 297 298 299 299 300 300 300 299 299 298 297 297 297 297 297 297 297 296 296 296 296 297 297 297 297 297 297 298 298 299 299 299 300 300 300 300 300
293 294 295 295 296 296 296 296 297 298 298 299 299 299 298 298 297 296 296 296 296 296 296 295 295 295 295 295 295 296 296 296 296 297 297 298 298 299 299 299 299 299
292 292 292 293 294 294 295 295 295 296 296 297 298 298 298 298 298 297 296 295 295 295 295 295 294 294 294 294 294 294 295 295 295 296 296 297 297 298 298 298 298 298
289 290 290 290 291 292 293 294 294 295 295 295 296 296 297 297 298 298 297 296 295 295 295 295 294 294 293 293 293 293 293 294 294 294 295 295 296 297 297 297 298 298
288 288 288 289 289 289 290 291 292 293 294 294 294 295 295 295 296 297 297 297 297 296 295 294 294 294 293 292 292 292 292 293 293 293 294 294 295 295 296 297 297 297
287 287 287 287 288 288 288 289 289 290 291 291 292 293 293 294 294 295 296 296 297 297 296 295 294 294 293 292 292 291 292 292 292 292 292 293 293 294 295 295 296 296
286 286 286 286 286 287 287 287 287 288 288 289 289 290 291 292 292 293 294 294 295 296 296 296 296 294 292 291 291 291 291 291 291 291 291 292 292 292 293 294 294 295
286 286 286 286 286 286 286 286 286 286 287 287 287 288 288 289 290 291 291 292 293 294 294 295 296 296 294 292 291 290 290 290 290 291 291 291 291 291 292 292 293 293
286 286 286 286 286 286 286 286 286 286 286 286 286 286 287 287 288 288 289 289 290 291 292 293 294 295 295 294 292 291 290 290 290 290 290 290 291 291 291 291 292 292
286 286 286 286 286 286 286 286 286 286 286 286 286 286 286 286 286 286 287 287 288 288 289 291 292 292 293 294 294 292 290 289 289 289 289 290 290 290 290 290 291 291
286 286 286 286 286 286 286 286 286 285 285 285 285 285 285 285 286 286 286 286 286 286 287 288 290 290 291 292 293 293 291 289 289 289 289 289 289 290 290 290 290 290
285 285 285 285 285 285 285 285 285 285 285 285 285 285 285 285 285 285 285 285 286 286 286 286 287 288 289 290 291 293 292 290 289 289 289 289 289 289 289 289 289 289
285 285 285 285 285 285 285 285 285 285 285 285 285 285 285 285 285 285 285 285 285 285 285 286 286 287 287 288 289 291 292 291 289 288 288 289 289 288 289 289 289 289
284 284 284 284 285 285 285 285 285 285 285 285 285 285 285 285 285 285 285 285 285 285 285 285 286 286 286 286 287 288 290 292 291 289 288 289 289 288 288 288 288 288
284 284 284 284 284 284 284 284 284 284 285 285 284 285 285 285 285 285 285 285 285 285 285 285 285 285 285 285 286 286 287 290 291 290 288 288 288 288 288 287 288 288
283 283 283 283 283 283 283 283 284 284 284 284 284 284 284 285 285 285 285 286 285 285 284 284 284 285 285 285 285 285 286 287 289 291 290 289 288 288 288 287 287 287

ECMWFNIL_850_thetae_033.txt.gz
Theta_e
305 304 304 303 303 303 303 303 302 302 302 301 301 300 300 300 301 301 301 301 301 301 301 301 301 301 301 301 301 302 302 301 299 298 297 297 296 296 296 296 295 295
304 304 304 304 303 303 303 302 302 302 302 302 301 301 300 299 299 300 301 301 300 300 300 300 300 300 300 301 300 300 300 300 299 298 298 297 297 297 297 296 296 296
303 303 304 304 304 303 303 302 302 302 301 302 302 302 301 300 299 299 300 301 301 300 300 300 300 299 300 300 300 300 300 299 298 298 298 297 297 297 296 296 296 296
302 302 303 303 303 303 303 303 302 302 301 301 301 301 302 302 301 300 300 300 301 300 300 300 300 299 299 299 299 299 300 299 298 298 297 297 297 296 296 296 296 296
299 300 300 301 301 302 302 303 303 302 302 301 301 300 301 301 301 301 301 300 301 300 300 300 299 299 299 299 299 299 299 299 299 298 297 297 297 296 296 296 296 296
299 299 299 299 299 300 300 301 301 302 302 302 301 301 301 300 300 300 300 300 300 300 300 300 299 299 298 298 298 299 299 299 299 299 298 298 298 297 296 296 296 296
298 298 298 298 298 298 298 299 299 300 301 301 301 301 301 301 301 301 300 299 299 299 299 299 299 299 299 298 298 298 298 298 298 298 299 299 299 298 297 297 296 296
296 297 297 297 297 297 297 298 298 298 299 299 300 300 300 300 301 301 301 300 299 299 298 298 298 298 298 298 298 297 297 297 297 297 298 298 299 299 298 298 298 298
293 294 295 296 296 297 297 297 297 297 297 298 298 298 299 299 300 300 301 301 300 299 299 298 298 297 297 297 297 297 297 296 296 296 297 297 297 298 298 298 298 299
291 291 291 292 293 295 295 296 296 296 296 296 296 297 297 297 298 298 299 300 300 300 299 298 298 297 297 297 296 296 296 297 296 296 296 296 296 296 297 297 297 298
289 289 289 289 290 291 292 292 293 294 294 295 295 296 296 297 297 297 297 298 298 299 299 299 298 297 297 297 296 296 296 295 296 296 296 296 296 295 295 295 296 296
289 289 288 288 288 288 289 289 290 291 291 291 292 293 294 295 296 296 296 296 296 297 297 298 298 298 297 296 296 296 296 295 295 295 296 296 296 296 295 295 295 295
288 288 288 287 287 287 287 288 288 288 289 289 290 290 291 292 293 294 295 295 295 295 295 295 296 297 297 297 296 296 295 295 295 295 295 295 295 295 295 295 295 295
287 287 287 287 287 287 287 287 287 287 287 288 288 288 289 289 290 291 292 292 293 293 293 293 293 294 295 295 296 296 295 295 294 294 295 295 295 294 294 294 295 295
287 287 287 287 287 287 287 286 286 286 286 287 287 287 287 288 288 288 289 289 290 291 291 291 291 292 292 292 293 294 295 295 294 294 293 294 294 294 294 294 294 294
286 286 286 286 286 286 286 286 286 286 286 286 286 286 286 287 287 287 287 287 288 288 289 289 289 290 290 290 290 291 292 293 294 293 293 293 293 293 293 294 295 295
286 286 286 286 286 286 286 286 286 286 286 286 286 286 286 286 286 286 286 286 286 287 287 287 288 288 288 288 288 289 289 290 292 293 293 292 292 292 292 293 293 294
286 286 286 286 286 286 286 286 286 286 286 286 286 286 286 286 286 286 286 286 286 286 286 286 286 287 287 286 286 286 287 288 289 290 291 292 292 292 291 291 291 292
286 286 286 286 286 286 286 286 286 286 286 286 286 286 286 286 286 286 286 286 286 286 286 286 286 286 286 286 286 285 286 286 286 288 289 290 291 292 292 291 291 290
286 286 286 287 286 286 286 286 286 286 286 285 285 286 286 286 286 286 286 286 286 286 286 286 286 286 286 286 285 285 285 285 285 286 286 287 289 291 291 292 291 290
286 286 286 286 286 286 286 286 286 286 286 285 285 285 285 286 286 286 286 286 286 286 286 286 286 286 286 286 286 285 285 285 285 285 285 286 287 288 289 291 291 291
286 286 286 286 286 286 286 286 286 286 286 285 285 285 285 285 285 285 286 286 286 286 286 286 286 286 286 286 286 286 285 285 285 285 285 285 286 286 287 288 289 291
285 285 285 286 286 286 286 286 286 286 286 285 285 285 285 285 285 285 285 285 286 286 286 286 286 286 286 286 286 286 286 285 285 284 285 285 285 285 285 286 287 288
284 284 284 284 285 285 286 285 285 285 285 285 284 285 285 285 285 285 285 286 285 285 286 286 286 286 286 286 286 286 286 286 285 285 284 284 285 285 285 285 286 286
283 282 282 282 283 283 284 284 284 284 284 283 283 284 284 284 285 285 285 285 286 286 286 285 286 286 286 286 286 286 286 286 286 285 285 284 284 285 285 285 285 285
281 281 281 280 280 281 281 281 282 282 282 282 282 283 283 283 284 284 284 285 285 285 285 285 285 286 286 286 286 286 286 285 285 285 285 285 284 284 284 285 285 285

ECMWFNIL_850_thetae_036.txt.gz
Theta_e
304 304 303 303 303 303 303 303 303 303 303 303 303 302 302 301 301 300 300 300 300 301 301 301 301 301 301 301 300 300 299 299 300 300 300 299 299 298 297 296 296 296
303 303 303 302 301 301 301 301 302 302 303 303 303 303 303 302 301 301 300 300 300 300 300 300 300 301 301 301 300 300 299 299 299 299 299 299 298 298 297 296 296 295
302 302 301 301 300 300 300 300 300 301 301 302 302 303 303 303 302 302 301 300 300 300 300 300 300 300 300 300 300 300 299 299 299 299 298 298 298 298 297 297 296 296
299 299 299 299 299 299 299 299 299 299 300 300 301 301 301 302 302 303 302 302 301 301 300 300 300 299 299 299 299 299 299 299 299 298 298 298 298 297 297 297 297 296
296 297 297 297 298 298 298 298 298 298 299 299 299 299 300 300 300 301 302 302 302 302 301 300 300 299 298 298 298 299 299 299 299 298 298 298 297 297 297 297 297 296
294 295 295 295 296 297 297 297 298 298 298 298 298 298 298 298 298 299 300 300 301 301 301 300 300 299 298 298 298 298 298 298 299 298 298 298 298 298 297 296 296 296
292 292 293 293 294 294 295 296 296 297 297 297 297 297 297 297 297 297 297 298 299 300 300 300 300 300 299 298 297 297 297 297 298 298 298 298 298 298 298 297 296 296
290 290 290 290 291 291 292 293 294 294 294 295 295 295 295 296 296 296 296 296 297 297 298 299 300 300 299 298 297 297 296 296 296 297 297 298 298 298 298 298 297 296
289 289 289 289 289 289 289 289 290 291 291 292 292 292 292 293 293 294 294 295 296 296 296 297 297 298 299 298 297 296 296 296 295 295 296 296 297 297 297 297 297 297
289 288 288 288 287 287 287 287 287 288 288 289 289 290 290 290 290 290 291 292 292 294 294 295 295 296 297 298 298 297 296 296 295 295 295 295 296 296 297 297 297 296
288 288 288 287 287 287 287 286 286 286 286 287 287 287 288 288 289 289 289 289 289 290 291 291 292 293 293 295 296 296 297 297 296 296 296 295 295 295 295 296 296 296
288 287 287 287 287 287 287 286 286 286 286 286 286 286 286 286 287 287 287 288 288 288 288 288 289 290 290 291 292 293 294 295 296 296 296 296 296 296 295 295 295 295
287 287 287 287 287 287 287 287 287 287 286 286 286 286 286 286 286 286 286 286 287 287 287 287 287 288 288 289 289 290 291 292 293 294 295 296 296 296 296 295 295 294
287 287 287 287 287 287 287 287 287 287 287 287 287 287 287 286 286 286 286 286 286 286 286 286 287 287 287 287 288 288 288 289 289 290 291 292 294 295 296 296 296 295
287 287 287 287 287 287 287 287 287 287 287 287 287 287 287 287 287 287 286 286 286 286 286 286 286 286 286 286 286 287 287 287 287 288 288 289 290 291 292 294 295 295
288 288 288 288 287 287 287 287 287 287 287 287 287 287 287 287 287 287 287 287 286 286 286 286 286 286 286 286 286 286 286 286 286 286 286 287 287 288 289 290 291 292
288 288 288 288 288 288 288 288 288 288 287 287 287 287 287 287 287 287 287 287 287 287 286 286 286 286 286 286 286 286 286 286 286 286 286 286 286 286 287 287 287 288
288 288 288 288 288 288 288 288 288 288 288 288 288 288 287 287 287 287 287 287 287 287 287 287 287 286 286 286 286 286 286 286 286 286 286 286 286 286 286 286 286 286
287 287 287 288 288 288 288 288 288 288 288 288 288 288 288 288 288 287 287 287 287 287 287 287 287 287 287 286 286 286 286 286 286 286 286 286 286 286 286 285 285 285
287 287 287 287 287 287 287 287 287 287 288 288 287 287 287 287 287 287 287 287 287 287 287 287 287 287 287 287 286 286 286 286 286 286 286 286 286 286 286 286 285 285
286 285 285 285 285 285 285 285 285 285 285 285 285 285 285 286 286 286 286 287 287 287 287 287 287 287 287 287 287 287 286 286 286 286 286 286 286 286 286 286 286 286
284 284 283 283 283 283 283 283 283 282 282 282 282 283 283 284 284 284 284 285 285 285 285 286 287 287 287 287 287 287 286 286 286 286 286 286 286 286 286 286 286 286
282 282 281 281 281 281 281 281 281 280 280 280 280 280 281 282 282 282 283 283 283 284 284 284 285 286 286 286 286 286 286 286 286 286 286 286 286 286 286 286 286 286
281 280 279 279 279 279 279 279 279 279 278 278 278 278 279 279 280 280 280 281 281 282 282 283 283 285 285 286 286 286 286 286 285 285 285 285 286 286 286 286 286 286
280 279 278 278 278 278 278 277 278 278 277 277 276 276 277 277 277 277 278 279 280 280 280 281 281 283 284 284 284 285 285 285 284 283 283 284 285 286 286 286 286 286
279 278 278 278 278 277 277 277 276 276 276 275 275 274 275 275 275 275 275 276 277 278 278 279 280 281 282 282 282 283 283 284 283 282 282 283 284 285 285 285 285 285

ECMWFNIL_850_thetae_042.txt.gz
Theta_e
296 296 296 296 296 295 295 295 295 295 296 296 296 297 297 297 297 298 298 298 298 298 298 298 298 298 298 298 298 298 298 299 299 299 299 299 300 300 301 302 302 302
295 295 295 294 294 294 293 293 293 293 293 293 293 294 294 294 294 295 295 296 296 296 297 297 297 297 297 297 297 297 298 298 298 298 298 298 299 298 299 299 300 300
293 293 293 293 293 292 292 291 291 291 291 291 291 291 291 291 291 291 292 292 293 293 294 294 295 295 296 296 297 297 297 297 297 297 297 298 298 298 298 298 298 299
291 291 291 291 291 291 291 290 290 290 290 289 289 289 289 289 289 289 289 289 289 290 290 291 291 292 292 293 294 295 296 296 296 296 296 297 297 297 297 297 297 298
290 290 290 289 289 289 289 289 289 289 289 289 289 288 288 288 288 288 288 287 287 287 288 288 288 288 289 289 290 291 292 293 294 295 295 296 296 296 296 296 297 297
288 288 288 288 288 288 288 288 288 288 288 288 288 288 288 288 288 288 288 287 287 287 287 287 286 287 287 287 287 288 288 289 290 291 292 293 295 295 295 296 296 296
288 288 288 288 288 288 288 288 288 288 288 288 288 288 288 288 288 288 288 287 287 287 287 287 287 286 286 286 286 286 286 287 287 288 288 289 290 292 293 294 294 295
288 288 288 288 288 288 288 288 288 288 288 289 288 288 288 288 288 288 288 288 288 288 287 287 287 287 287 287 286 286 286 286 286 286 287 287 287 288 289 290 291 292
288 288 288 288 288 289 289 289 289 289 289 289 289 289 289 289 289 289 289 289 289 289 288 288 288 288 288 287 287 287 287 286 286 286 286 286 286 286 287 287 288 289
289 289 289 289 289 289 289 289 289 289 289 289 289 289 289 289 289 289 289 289 289 289 289 289 289 289 288 288 288 288 288 287 287 287 286 286 286 286 286 286 286 286
289 289 289 289 289 289 289 289 289 289 289 289 289 289 288 288 288 288 288 289 289 289 289 289 288 289 289 288 288 288 288 288 288 288 288 287 287 286 286 286 286 286
289 289 289 289 289 289 289 289 289 288 288 288 288 288 288 288 288 288 288 288 288 288 288 288 288 288 288 288 288 288 288 288 288 288 288 288 288 288 287 287 286 286
289 289 289 289 289 289 289 288 288 288 288 288 288 288 288 287 287 287 287 287 287 287 286 286 286 286 287 286 287 287 287 287 287 287 287 288 288 288 288 288 287 287
289 289 290 289 289 289 288 288 288 288 288 288 287 287 287 287 286 286 286 286 286 286 286 286 286 286 286 286 286 286 286 286 286 286 286 286 287 287 287 287 288 288
289 290 290 289 289 289 288 288 288 288 287 287 287 286 286 286 286 286 286 285 285 285 285 285 285 285 285 285 285 284 284 284 284 284 284 285 285 286 286 286 287 287
289 289 289 289 289 289 288 288 287 287 286 286 286 286 285 285 285 285 285 285 285 285 285 285 285 285 285 285 284 283 282 282 282 282 282 283 283 284 285 285 286 286
289 289 289 289 289 288 287 287 287 286 285 285 285 285 284 284 284 284 284 284 284 284 284 284 284 285 284 284 283 282 281 280 280 281 281 281 281 282 283 284 284 285
289 289 288 288 288 287 286 285 285 284 284 283 283 283 283 283 283 283 283 283 283 283 283 283 284 284 284 283 283 282 281 280 279 280 280 280 281 281 281 282 283 283
288 287 287 286 286 285 284 284 283 283 283 282 283 283 283 283 283 283 283 283 283 282 283 283 283 283 283 282 282 282 281 279 279 279 279 279 280 280 280 280 281 281
286 285 285 284 284 283 283 283 282 282 282 282 282 283 283 283 283 283 283 282 282 281 281 282 283 282 281 280 280 279 279 278 278 278 279 279 279 279 279 279 279 280
284 284 283 283 283 282 282 282 282 282 282 282 282 282 282 282 282 282 282 281 281 280 280 280 281 280 278 278 277 276 276 276 276 277 278 279 279 279 279 278 278 278
283 283 283 282 282 282 282 282 282 282 282 282 282 282 282 281 281 281 280 279 279 278 277 278 278 277 275 275 274 274 273 273 274 275 276 277 278 278 278 277 277 277
282 282 282 282 282 282 282 282 282 282 281 281 281 281 281 280 280 279 278 277 276 276 274 275 275 274 273 273 272 272 272 272 272 273 273 274 275 276 276 276 276 276
281 281 281 281 281 281 281 281 281 281 281 280 280 280 279 279 278 277 276 274 274 273 272 272 273 272 271 271 271 271 271 270 271 271 271 272 272 273 273 274 274 274
281 280 280 281 281 281 280 280 280 280 280 279 279 278 278 277 276 275 275 273 272 272 271 271 271 271 271 270 270 270 270 269 269 269 269 270 270 271 271 271 272 272
280 280 280 280 280 280 280 280 280 279 279 278 278 277 277 276 274 273 273 272 271 271 271 271 271 270 270 270 270 270 269 268 268 268 269 269 269 270 270 270 270 271

ECMWFNIL_850_thetae_045.txt.gz
Theta_e
295 295 294 294 294 293 293 293 292 292 291 291 291 291 290 290 290 290 291 290 291 291 291 291 292 292 293 293 293 294 294 295 295 296 296 296 296 297 297 297 298 298
293 293 292 292 292 292 291 291 290 290 290 290 290 289 289 289 289 289 289 289 289 289 289 289 289 290 290 290 291 291 291 291 292 292 293 294 294 295 295 296 296 297
292 291 291 291 291 291 290 290 290 289 289 289 289 289 289 289 289 289 289 289 289 289 288 288 288 288 288 289 289 289 289 289 289 289 289 290 291 291 292 293 294 295
290 290 290 290 290 290 290 289 289 289 289 289 289 289 289 289 289 289 289 289 289 289 288 288 288 288 288 288 288 288 288 288 288 288 288 288 288 288 289 289 290 291
289 289 289 289 289 289 289 289 289 289 289 289 289 289 289 289 289 289 289 289 289 289 289 289 288 288 288 288 288 288 288 288 288 288 288 288 288 288 287 287 288 288
289 289 289 288 289 289 289 289 289 289 289 289 289 289 289 289 289 289 289 289 289 289 289 289 289 289 289 289 289 289 288 288 288 288 288 288 288 288 287 287 287 287
289 289 289 289 289 289 289 289 289 289 289 289 289 289 289 289 289 289 289 289 289 289 289 289 289 289 289 289 289 289 289 289 289 288 288 288 288 288 288 288 287 287
290 290 290 289 289 289 289 289 289 289 289 289 289 289 289 289 289 289 289 289 289 289 289 289 289 289 289 289 289 288 288 288 288 288 288 288 288 288 288 288 288 288
290 290 290 290 290 290 289 289 289 289 289 289 289 289 288 288 288 288 288 288 288 288 288 287 287 287 287 287 287 287 287 287 287 287 287 287 287 287 287 287 288 288
289 289 289 289 289 289 289 289 289 289 289 289 288 288 288 288 288 287 287 287 287 286 286 286 286 286 286 286 286 286 286 286 286 286 286 286 286 286 286 286 287 287
289 289 289 289 289 289 289 289 289 289 289 289 288 288 287 287 287 287 286 286 286 286 286 286 285 285 285 285 285 285 285 285 285 285 286 286 286 286 286 286 286 286
289 289 289 289 289 289 289 289 289 289 289 289 288 287 287 287 286 286 286 286 286 285 285 285 285 285 285 285 285 285 285 285 285 285 285 285 286 286 286 286 286 286
289 289 289 289 289 289 289 289 289 289 289 289 288 287 287 286 286 286 285 285 285 285 285 285 285 284 284 284 284 284 284 284 284 284 285 285 285 285 286 286 286 285
290 290 290 289 289 289 289 289 289 289 289 288 287 287 286 286 285 285 285 284 284 284 284 284 284 284 284 284 284 284 284 284 284 284 284 285 285 285 285 285 285 285
289 289 289 289 289 289 289 289 289 289 288 288 287 286 286 285 285 284 284 284 284 284 284 284 284 284 284 284 283 283 283 283 283 283 283 284 284 284 285 285 284 284
288 288 288 288 288 288 288 288 288 288 287 287 286 285 285 284 284 283 283 283 283 284 284 284 284 284 284 283 283 282 282 282 282 282 282 282 283 283 284 284 284 283
288 288 288 288 287 287 287 287 287 287 286 285 285 284 284 283 283 283 283 283 284 284 284 284 284 284 283 283 282 281 281 280 280 281 281 281 281 281 281 282 282 282
288 288 287 287 287 287 286 286 286 285 285 284 284 283 283 283 283 283 283 284 284 284 284 284 284 283 283 282 281 281 280 278 278 279 279 279 279 279 278 279 279 279
287 287 287 287 286 285 285 285 284 284 284 283 283 283 283 283 283 283 284 284 284 284 284 284 283 283 282 281 280 279 278 277 277 277 277 277 277 277 276 276 276 277
287 287 286 286 285 284 284 284 283 283 283 283 283 283 283 283 283 283 283 283 283 283 283 283 282 282 280 279 278 277 276 275 275 276 276 275 275 275 274 275 275 274
286 286 285 284 284 283 283 283 283 283 282 282 283 283 283 283 283 283 283 283 282 282 282 282 281 280 279 278 277 276 275 274 274 274 274 274 274 273 273 273 273 273
285 285 284 283 283 283 283 283 282 282 282 282 282 283 283 282 282 282 282 282 281 281 281 281 280 279 278 277 276 275 274 274 273 273 273 273 272 272 271 272 271 271
284 284 283 283 283 283 282 282 282 282 282 282 282 282 282 282 282 282 281 281 280 280 279 279 279 277 276 275 274 274 273 273 272 272 272 271 271 270 270 269 269 269
283 283 282 282 282 282 282 282 282 282 282 282 282 282 282 282 281 281 280 280 279 279 278 277 277 276 274 274 273 273 272 272 271 271 270 270 270 269 269 268 268 268
283 282 282 282 282 281 281 281 281 281 281 281 281 281 281 281 280 280 280 279 278 278 276 276 276 275 274 273 273 272 272 271 270 270 269 269 269 269 269 269 269 269
282 281 281 281 281 281 281 281 281 281 281 281 281 280 280 280 279 279 279 278 277 276 276 275 275 274 274 273 272 272 271 270 270 269 269 269 269 268 269 269 269 269

ECMWFNIL_850_thetae_048.txt.gz
Theta_e
295 294 294 293 292 292 291 291 291 290 290 290 290 290 290 289 289 289 289 289 289 289 289 289 289 289 289 289 289 289 289 289 289 289 288 288 288 288 288 288 288 289
294 293 292 292 291 291 291 291 290 290 290 290 290 290 290 290 290 290 290 290 290 289 289 289 289 289 289 289 289 289 289 289 289 289 289 288 288 288 288 288 288 288
292 291 291 291 291 290 290 290 290 290 291 291 290 290 291 291 290 290 290 290 290 290 290 290 289 289 289 289 289 289 289 289 289 289 289 289 289 289 289 288 288 288
290 290 290 290 290 290 290 290 290 290 290 290 290 290 290 290 290 290 290 290 290 290 290 290 290 290 290 290 290 289 289 289 289 289 289 289 289 289 289 289 289 289
290 290 290 290 290 290 290 290 290 290 290 290 290 290 289 290 290 290 290 290 290 290 290 290 289 289 289 289 289 289 289 289 289 288 288 288 288 288 288 288 288 288
290 290 290 290 290 290 290 290 290 290 290 290 289 289 289 289 289 289 289 289 289 289 289 289 288 288 288 288 288 288 288 288 288 288 288 288 288 288 287 287 287 287
290 290 290 290 290 290 290 290 289 289 289 289 289 289 289 288 288 288 288 288 288 288 288 288 288 287 287 287 287 287 287 287 287 287 287 287 287 287 287 287 287 287
290 290 290 290 290 289 289 289 289 289 289 289 289 288 288 288 288 288 287 287 287 287 287 287 287 286 286 286 286 286 286 286 286 286 286 286 287 287 287 287 287 287
290 290 290 290 289 289 289 289 289 289 289 288 288 288 288 288 288 288 287 287 287 286 286 286 286 286 286 286 286 286 286 286 286 286 286 286 286 287 287 287 287 287
290 290 290 290 289 289 289 289 289 288 288 288 288 288 288 288 288 287 287 287 287 286 286 286 286 285 285 285 285 285 285 286 286 286 286 286 286 286 286 286 286 287
290 290 289 289 289 289 289 288 288 288 288 288 288 288 288 288 287 287 287 287 286 286 286 285 285 285 285 285 285 285 285 285 285 285 285 286 286 286 286 286 286 286
290 290 289 289 289 288 288 288 288 288 288 288 288 288 288 287 287 287 287 286 286 285 285 285 284 284 284 284 284 284 284 285 285 285 285 285 285 286 286 285 286 286
290 290 289 289 288 288 288 288 288 288 288 288 287 287 287 287 287 287 286 286 285 284 284 284 284 284 284 284 284 284 284 284 285 285 285 285 285 285 285 285 285 284
290 289 288 288 288 288 288 287 287 287 287 287 287 287 287 286 286 286 285 285 284 284 284 283 283 284 284 284 284 284 284 284 284 284 284 284 284 284 284 284 283 283
289 288 288 287 287 287 287 287 287 287 287 287 287 286 286 286 285 285 284 284 283 283 283 283 283 283 283 284 284 284 284 284 284 284 284 284 284 284 284 283 282 281
288 288 287 287 287 287 287 287 287 287 287 286 286 285 285 285 284 284 283 283 283 283 283 283 283 283 283 283 283 283 283 283 283 283 283 283 283 283 282 282 280 280
288 287 287 287 287 287 286 286 286 286 286 286 285 285 284 284 283 283 283 283 283 283 283 283 283 283 283 283 282 282 281 281 281 282 281 281 280 280 280 279 278 278
288 288 287 287 287 286 286 286 286 286 285 285 284 284 284 283 283 283 283 283 283 283 283 283 283 283 283 282 282 281 280 280 280 280 279 279 278 277 277 276 276 276
288 287 287 287 286 286 286 286 286 285 285 284 284 283 283 283 283 283 283 283 283 283 283 283 283 283 282 282 281 281 280 279 279 278 278 277 276 275 275 275 275 275
287 287 287 286 286 285 285 285 285 284 284 283 283 283 283 283 283 283 283 283 283 283 283 283 283 282 282 281 281 280 279 278 278 277 277 276 275 275 275 274 274 274
287 287 286 286 285 285 285 285 284 283 283 283 282 282 282 282 282 283 283 283 283 283 283 283 282 282 281 281 280 279 279 278 277 277 276 275 275 274 274 274 273 272
287 286 286 285 285 285 285 284 283 283 282 282 282 282 282 282 282 282 282 282 282 282 282 282 282 281 280 280 279 279 278 277 276 276 275 275 274 274 274 273 272 271
286 286 285 285 285 285 284 283 283 282 282 282 282 282 282 282 282 282 282 282 282 282 282 282 281 280 280 279 278 278 277 276 276 275 274 274 274 274 273 271 270 270
286 285 285 285 285 284 283 283 282 282 282 281 282 282 282 282 282 282 282 282 281 281 281 281 281 280 279 278 278 277 276 276 275 274 274 274 274 273 272 270 270 270
285 285 285 285 284 283 283 282 282 281 281 281 281 281 282 282 281 282 282 281 281 280 280 280 280 279 278 277 277 276 276 275 275 274 274 274 273 272 271 270 270 270
285 285 285 285 284 283 282 282 281 281 281 281 281 281 281 281 281 281 281 281 280 280 279 279 279 278 278 277 276 276 276 275 274 274 274 273 272 271 270 270 270 270